FENGYUN 1C DEB

Satellite information

Favourite Embed

Satellite Type and Status

DEBRISIN ORBIT

Key statistics

Satellite FENGYUN 1C DEB at a glance.

Uptime

9555

Days in orbit

Revolutions

≈ 14.1

Per day

Orbit

SSO

Sun Synchronous Orbit

Inclination

98.8

Latest

Satellite identification and parameters

Extended collection of information and parameters for FENGYUN 1C DEB.

Object identification

Identified? True

Debris? True

Object name: FENGYUN 1C DEB

International designator: 1999-025BJZ

Object number (NORAD): 31195

Object ID (CCSDS): 31195

Country: PEOPLES REPUBLIC OF CHINA (PRC)

Current information (Y/N): Y

RCS size: SMALL

Orbital parameters

Period: 102.282 minutes

Inclination: 98.7979 deg

SMA: 7244.803 km

Apoapsis: 990.434 km

Periapsis: 742.901 km

RAAN: 222.5183 deg

Eccentricy: 0.0170835

Argument of periapsis: 277.3536 deg

Mean anomaly: 80.8247 deg

Mean motion: 14.07871136 rev/day

Mean motion (dot): 0.00000147 rev/day2

B* drag term: 0.000098955 1/REarth

Two-line elements (TLE)

Creation date: July 4, 2025, 6:39 p.m.

Reference frame: TEME

Reference center: EARTH

Epoch: July 4, 2025, 1:02 a.m. UTC

TLE line 0: 0 FENGYUN 1C DEB

TLE line 1: 1 31195U 99025BJZ 25185.04307857 .00000147 00000-0 98955-4 0 9991

TLE line 2: 2 31195 98.7979 222.5183 0170835 277.3536 80.8247 14.07871136938232

Live tracking on map

Real-time ground track for satellite FENGYUN 1C DEB.

In-orbit conjunctions

A list of the most updated potential collisions computed for object FENGYUN 1C DEB.

Target Orbit TCA Probability of collision Miss distance Type
COSMOS 1818 LEO 2024-10-27 06:39:24 0.0003255177 212.0 (m) PAYLOAD
METEOR 2-11 DEB LEO 2024-10-14 05:55:08 0.0002933934 273.0 (m) DEBRIS

Associated space launch

Chinese polar orbiting meteorological satellite

FENGYUN 1C DEB was lifted into orbit during the mission ‘Long March 4B | Feng Yun 1C’, on board a Long March 4B space rocket.

The launch took place on May 10, 1999, 1:33 a.m. from Launch Complex 7.

For more information about the launch, click the button.

Launch to space Long March 4B | Feng Yun 1C
Long March 4B | Feng Yun 1C

Agency: N/A

Status: Launch Successful

Launch date: May 10, 1999, 1:33 a.m. UTC

Rocket: Long March 4B

Launch pad: Launch Complex 7

Location: Taiyuan Satellite Launch Center, People's Republic of China

...

Latest news about this satellite

There are no fresh news available about this satellite. Check back as we update our databases every day.


Newsletter sign-up

Weekly statistics, charts and insights to help you stay on top of the space industry.